Theta_e
347 349 347 337 332 330 328 327 328 326 327 329 331 331 332 333 327 326 327 329 332 335 336 337 338 340 339 338 336 336 338 341 340 334 331 329 329 337 340 342 337 328 328
345 350 347 337 332 331 329 327 327 324 325 327 330 333 333 330 327 326 328 330 334 338 341 341 341 340 338 336 335 335 337 339 341 343 345 346 339 329 337 339 334 328 328
344 352 347 337 333 331 330 327 327 325 326 328 331 331 331 328 327 327 327 330 334 336 339 341 340 339 338 338 337 336 336 335 336 335 334 338 341 346 330 331 330 329 328
343 348 346 337 334 332 331 327 327 325 328 332 334 333 329 325 325 329 329 329 329 330 332 335 338 337 336 336 335 334 333 332 332 330 328 331 333 336 343 332 330 330 330
346 348 345 337 335 332 332 328 326 325 328 333 335 333 328 326 325 327 329 329 330 330 330 330 331 331 330 328 326 325 324 324 324 324 323 330 332 338 343 336 332 333 334
352 349 342 338 337 333 333 330 326 325 328 335 336 333 328 327 325 324 325 326 327 327 328 328 327 326 325 323 323 323 322 322 321 321 321 323 330 339 342 343 334 335 334
354 350 342 338 338 333 334 332 328 326 326 335 337 334 327 325 325 325 324 324 325 325 325 325 324 324 323 323 323 322 321 320 320 321 320 319 321 329 340 342 338 337 335
353 353 344 340 340 335 335 334 331 327 326 332 336 334 327 327 327 326 324 323 322 323 323 323 322 322 321 321 321 321 321 321 323 327 329 329 324 324 329 336 340 339 336
352 354 347 342 341 337 335 337 333 329 327 327 332 333 328 328 328 326 324 323 322 323 322 322 322 322 323 323 323 323 323 325 327 331 333 334 333 330 329 332 335 341 338
352 354 353 346 343 337 336 338 336 331 327 326 327 332 329 328 329 328 328 328 328 327 327 326 325 324 323 324 328 331 334 337 337 337 339 340 340 342 341 338 332 339 339
350 351 353 350 345 340 337 340 339 334 329 327 327 332 329 328 328 327 326 326 328 332 335 334 330 327 325 328 333 336 338 337 339 339 338 340 342 344 343 337 334 333 338
348 349 351 349 347 343 340 341 341 337 332 329 327 330 329 328 327 326 331 329 336 339 340 339 337 334 332 334 336 337 338 338 339 340 342 343 344 343 344 342 337 336 334
344 348 350 346 347 345 343 342 342 339 332 327 327 329 329 328 326 334 340 341 341 341 340 340 340 340 337 338 338 337 338 339 341 343 344 345 346 346 345 344 342 344 337
342 339 342 345 344 343 342 342 342 339 332 326 327 328 328 326 330 339 341 342 343 343 342 341 341 341 342 340 341 341 340 337 340 346 347 346 345 344 345 346 345 341 334
339 338 338 340 339 340 338 338 338 336 328 324 326 327 326 329 339 346 347 345 345 344 343 343 343 344 346 347 348 347 342 340 340 346 344 343 343 342 341 342 345 346 345
338 339 339 340 338 335 333 333 333 330 324 324 325 326 329 334 344 349 348 346 347 350 350 351 347 348 349 348 347 346 345 343 344 341 340 340 339 337 337 340 342 343 345
336 336 336 334 333 332 330 329 327 325 325 326 329 335 343 345 349 350 347 347 352 352 351 350 349 349 348 347 345 342 342 340 335 338 332 334 335 334 333 335 339 341 341
338 338 337 337 334 334 335 330 329 329 331 334 338 343 346 347 349 348 347 351 352 351 349 348 346 341 335 328 323 326 325 322 337 329 326 326 328 327 327 325 332 339 342
342 341 340 341 339 339 341 340 334 336 341 342 345 346 347 348 351 350 351 352 351 350 346 339 331 322 315 313 313 313 312 327 330 319 319 321 318 317 318 319 319 322 328
345 344 343 345 349 347 344 343 343 341 345 345 345 346 347 348 350 351 352 351 349 346 332 317 314 315 315 313 313 311 312 326 323 311 318 314 313 313 314 315 315 316 318
343 341 345 345 346 343 345 348 347 346 348 349 350 349 348 351 351 352 350 345 340 331 315 313 312 313 318 317 314 311 316 318 321 311 318 314 314 314 312 310 309 314 316
344 338 342 343 340 342 339 341 346 347 348 351 351 351 351 351 351 350 345 334 321 315 314 313 311 314 320 317 315 316 315 315 314 314 314 314 315 312 311 311 311 312 318
336 333 333 337 340 338 338 338 337 346 348 348 349 349 348 346 344 339 330 319 316 315 315 314 313 313 316 314 318 314 310 312 312 315 315 314 313 311 311 310 310 310 314
340 338 338 339 341 338 338 338 336 343 343 339 338 338 334 334 328 324 317 317 317 317 317 316 316 315 314 315 316 318 317 315 313 312 314 314 311 311 311 310 311 312 314
338 335 338 337 338 339 337 338 338 344 344 338 328 326 329 329 322 319 318 318 318 318 318 318 317 316 317 316 318 316 315 314 314 311 311 310 310 310 310 312 312 312 311
336 336 336 334 334 335 334 340 338 342 340 333 326 322 321 321 320 320 319 319 319 319 319 319 318 317 317 316 315 314 314 313 312 310 307 309 309 310 311 311 310 311 309
Wind_Speed
21 31 30 27 26 25 24 23 26 28 29 30 29 27 26 24 23 22 22 21 20 17 17 16 15 14 13 12 12 11 10 10 10 9 7 6 4 3 3 2 3 3 4
34 32 31 29 26 25 23 23 25 27 29 29 28 27 25 23 22 21 21 20 18 16 14 13 12 11 10 9 9 8 7 7 6 4 2 2 1 1 2 3 2 3 3
40 34 33 30 28 26 23 23 25 26 27 27 26 25 23 22 21 20 19 18 16 14 12 11 10 9 8 6 5 4 3 3 2 2 2 3 4 6 5 4 4 4 3
42 39 35 32 29 27 24 24 25 26 26 25 23 22 21 20 19 18 17 16 14 12 10 8 7 6 4 3 1 1 1 3 2 3 4 5 8 9 9 7 6 5 5
40 41 38 33 30 28 25 24 25 26 25 24 23 21 19 18 17 16 15 13 12 9 7 6 4 3 1 0 1 3 4 5 6 7 7 6 11 9 12 11 9 6 7
31 40 39 35 32 29 27 24 24 26 26 24 22 21 19 17 16 14 12 11 9 7 5 4 2 1 1 2 4 4 5 6 8 8 9 7 9 7 10 14 13 10 9
20 34 35 33 31 28 26 25 24 25 25 23 21 19 18 16 14 13 11 9 7 5 3 2 2 2 4 5 6 8 8 10 11 12 12 11 9 9 11 15 16 14 13
24 26 34 32 31 29 27 24 22 22 23 22 19 17 16 14 13 11 9 8 6 4 2 2 3 5 6 8 9 10 11 12 14 14 13 13 11 11 12 17 21 19 17
21 24 32 31 30 29 27 24 22 21 22 22 19 16 15 13 11 9 7 5 3 2 2 4 5 8 8 10 12 13 14 16 18 19 19 17 14 13 16 18 21 22 21
17 18 21 30 30 30 28 25 23 21 22 23 21 17 14 12 9 7 4 3 2 3 4 6 7 9 11 12 13 13 14 15 17 17 16 18 18 19 20 20 18 23 24
18 20 19 26 30 29 27 25 23 21 21 22 21 18 15 12 9 7 5 4 4 5 7 10 10 11 11 12 13 13 14 16 19 20 19 18 19 19 21 20 18 22 24
24 23 22 26 26 29 28 27 25 23 22 22 21 19 17 14 11 8 7 6 5 6 7 9 11 12 12 14 14 15 16 18 20 23 24 25 27 26 24 22 19 18 25
33 25 27 32 32 30 29 27 25 23 23 24 23 20 16 13 11 10 7 5 6 8 10 10 11 12 14 15 17 17 18 18 19 23 25 25 26 26 26 24 22 19 21
35 37 35 35 33 31 29 27 25 24 23 23 22 20 19 16 13 10 8 7 8 9 7 8 12 15 14 14 15 15 14 18 17 20 23 23 24 24 23 23 26 24 26
36 40 37 33 32 32 29 28 27 26 25 24 23 20 17 15 11 8 8 8 7 7 8 10 12 10 10 11 13 16 19 19 20 21 23 24 24 22 22 20 21 25 27
21 25 33 32 32 31 29 29 28 26 24 23 21 20 17 15 12 9 8 7 4 3 5 6 5 6 9 14 16 17 19 19 21 21 21 18 18 19 21 21 18 17 18
26 28 31 33 29 27 25 26 25 25 24 23 22 20 18 17 12 8 5 3 3 3 5 4 3 7 11 13 16 17 18 18 19 15 16 17 18 21 22 22 20 17 12
14 14 21 18 28 26 24 25 26 24 23 23 22 20 18 16 13 9 6 3 3 2 4 4 6 7 11 15 17 16 17 15 10 13 16 20 20 23 23 23 20 19 16
21 18 14 11 21 26 25 24 25 24 23 24 22 20 19 17 14 10 8 6 4 1 4 7 7 9 14 16 16 17 18 11 9 18 18 19 22 24 25 25 26 23 17
29 21 19 6 7 11 22 27 27 26 25 25 24 22 18 16 14 11 10 8 5 5 7 9 11 9 16 20 16 18 14 8 8 20 16 21 23 24 25 26 28 28 24
22 19 17 6 1 1 10 18 24 23 20 20 20 18 20 17 15 14 12 10 7 9 12 13 11 12 20 23 16 22 7 7 5 20 13 21 23 26 28 28 29 28 27
26 15 12 18 16 20 9 25 8 17 19 22 20 20 20 17 16 14 13 13 11 12 12 15 17 16 14 19 13 4 5 7 7 4 15 19 21 28 32 30 26 26 22
25 28 20 29 31 23 17 22 33 13 18 20 20 20 19 19 17 16 15 15 13 11 14 17 17 18 13 14 12 6 4 3 12 4 10 22 23 22 22 30 25 26 22
25 22 23 36 45 42 30 19 29 26 4 10 19 22 21 21 18 16 16 14 13 11 13 13 14 16 12 11 5 8 4 5 2 5 10 16 27 20 22 23 25 24 18
25 24 26 34 30 33 35 40 40 20 22 17 20 24 23 19 14 13 13 12 11 10 12 11 11 10 8 8 6 7 11 12 7 5 6 14 20 21 23 19 23 21 25
20 24 25 24 20 22 25 25 24 25 28 27 21 23 24 21 17 13 12 11 8 8 9 8 9 8 7 8 10 11 10 4 7 4 3 10 11 20 20 18 23 21 27
Wind_Direction
169 167 166 160 153 147 145 144 141 139 139 138 136 135 134 133 128 128 128 127 125 123 121 119 116 112 109 107 105 107 107 101 100 97 91 93 109 130 114 171 153 165 141
162 166 168 162 155 150 147 146 145 143 142 140 137 136 136 135 132 131 132 132 130 128 126 124 122 119 115 110 105 106 104 103 102 95 74 30 353 261 218 155 207 204 182
160 165 167 164 158 153 149 150 149 147 145 141 141 140 139 137 135 135 137 137 136 136 136 133 130 127 125 123 114 103 95 96 83 54 2 337 291 268 252 235 230 225 218
161 163 167 165 161 156 155 155 154 153 150 145 144 142 139 138 138 139 139 140 143 144 146 144 142 141 139 131 107 56 345 329 322 317 319 312 301 273 252 245 237 238 238
162 164 166 166 163 160 159 159 159 159 155 152 148 146 142 140 141 143 144 145 145 145 145 144 144 145 143 345 333 325 322 319 315 313 317 319 322 284 249 247 245 249 253
161 166 166 166 166 165 163 163 164 164 162 158 154 151 148 147 147 148 148 147 148 150 151 154 165 191 288 306 308 317 321 317 313 317 320 316 326 295 268 250 258 255 255
160 167 166 168 168 167 167 167 168 170 168 165 161 156 153 151 150 151 151 151 154 157 160 194 240 280 295 306 315 319 322 324 324 323 321 314 303 302 273 257 264 263 261
160 169 170 172 171 170 173 171 171 172 173 172 168 162 157 156 155 156 158 159 162 173 194 262 290 297 307 315 317 318 322 321 320 323 325 318 308 288 286 270 263 263 263
164 167 174 175 174 174 176 175 174 176 177 178 176 171 167 165 163 163 165 169 172 196 245 285 299 304 314 318 318 321 325 323 322 325 325 323 325 311 292 291 267 262 264
161 168 176 179 178 179 179 180 179 180 182 182 181 178 176 175 173 176 186 197 240 284 297 297 301 306 313 317 323 327 330 332 332 329 330 328 329 326 316 293 280 261 262
166 173 180 184 182 182 183 183 184 185 186 185 184 184 183 183 183 192 211 237 269 296 305 304 305 304 308 313 321 326 325 328 329 326 323 325 325 322 324 319 292 274 261
172 174 178 187 188 187 186 187 188 189 189 188 188 188 191 191 195 206 213 221 250 277 294 305 313 311 308 311 318 319 315 317 323 323 322 325 321 316 310 310 300 289 267
178 174 183 186 191 191 190 191 191 193 191 191 193 194 195 199 202 209 220 228 268 286 294 301 306 305 308 312 318 314 315 317 322 324 323 327 327 320 307 304 298 295 256
181 188 190 191 191 190 194 196 196 196 196 194 197 198 200 203 204 213 238 257 277 297 289 300 305 312 310 311 317 319 324 326 328 338 341 335 339 337 336 326 303 292 274
181 189 190 191 190 192 194 197 200 201 200 198 200 203 204 203 204 224 253 264 271 291 285 296 305 309 317 322 322 318 312 326 332 337 339 337 340 347 343 326 318 300 296
183 186 187 192 195 194 194 198 201 203 205 205 205 205 205 206 209 230 246 249 273 314 297 299 288 305 330 331 330 330 329 332 334 340 345 353 355 358 4 355 338 320 301
194 188 190 192 197 201 202 202 203 206 208 211 213 209 205 201 206 230 207 202 97 57 83 61 16 340 323 323 323 329 332 339 341 0 11 16 14 7 13 12 3 351 310
169 170 185 195 199 202 212 211 211 211 214 215 212 210 210 208 206 205 197 160 110 64 52 23 19 10 354 345 339 339 339 344 5 12 19 17 20 19 15 14 12 16 0
139 139 164 194 214 209 212 220 222 220 214 218 220 216 220 219 215 199 185 163 173 85 50 50 45 25 7 352 343 334 332 343 6 4 15 20 19 17 14 14 17 16 3
115 134 160 186 202 231 239 231 230 228 225 226 229 229 228 226 215 194 161 153 138 106 80 67 58 39 18 1 347 338 333 329 347 13 26 19 16 13 10 5 5 7 7
123 116 141 166 136 2 326 282 228 227 225 216 207 214 217 214 198 182 153 138 123 105 77 61 53 39 24 17 2 343 340 329 323 9 16 12 12 6 359 356 356 3 3
153 145 188 188 255 248 297 12 202 192 184 189 175 184 182 181 180 168 151 127 116 100 74 57 47 48 39 30 19 350 345 334 331 5 4 12 8 358 352 352 354 3 11
179 195 231 232 218 224 236 254 290 224 164 161 156 148 149 161 158 145 133 127 107 85 66 50 40 43 44 33 41 48 360 325 330 329 332 349 359 353 350 345 347 350 358
189 203 199 217 224 216 217 222 243 265 234 150 150 145 141 137 133 127 129 115 101 82 65 48 34 35 35 28 42 30 27 327 309 327 325 324 341 346 344 348 353 4 1
182 177 184 195 209 218 225 212 195 206 202 174 145 137 121 119 130 134 123 106 84 62 53 36 26 27 27 16 20 360 342 328 278 240 297 321 331 340 343 351 355 358 354
186 197 202 208 217 210 197 184 188 177 173 161 152 138 129 141 148 142 115 87 76 55 44 27 9 7 11 18 358 348 338 319 306 297 280 322 316 336 337 342 341 342 349